Weather Service Report


101 
ASUS41 KPHI 290312
RWRPHI

REGIONAL WEATHER ROUNDUP
NATIONAL WEATHER SERVICE MOUNT HOLLY NJ
1100 PM EDT TUE JUN 28 2016

NOTE:  "FAIR" INDICATES FEW OR NO CLOUDS BELOW 12,000 FEET WITH NO
SIGNIFICANT WEATHER AND/OR OBSTRUCTIONS TO VISIBILITY.

 * = STATION DOES NOT REPORT PRECIPITATION (E.G. RAIN, SNOW, ETC.) 
        OR FOG.

NJZ015>026-290400-
SOUTHERN NEW JERSEY
  
CITY           SKY/WX    TMP DP  RH WIND       PRES   REMARKS
POMONA         MOCLDY    70  67  90 S3        29.89S                  
MILLVILLE      CLOUDY    72  69  90 CALM      29.89R                  
WRIGHTSTOWN    CLOUDY    72  70  94 S3        29.87R                  
MOUNT HOLLY    CLOUDY    73  69  87 CALM      29.88R                  
TRENTON        HVY RAIN  69  66  90 W16       29.91R FOG              

$$
NJZ001>014-290400-
NORTHERN NEW JERSEY
  
CITY           SKY/WX    TMP DP  RH WIND       PRES   REMARKS
SUSSEX         MOCLDY    67  65  93 CALM      29.89F                  
ANDOVER*         N/A     66  65  96 CALM      29.90S                  
MORRISTOWN     CLOUDY    68  64  88 CALM      29.89S                  
NEWARK         LGT RAIN  70  68  93 W7        29.88S                  
TETERBORO      RAIN      68  65  90 N6        29.87S                  
CALDWELL       CLOUDY    68  65  90 S3        29.89S                  
SOMERVILLE     CLOUDY    68  65  90 VRB3      29.86F                  
ALLAIRE*       CLOUDY    71  69  93 SW7       29.90S                  
TOMS RIVER*    MOCLDY    70  68  93 S5        29.90R                  

$$
PAZ043-044-047-054-055-060>062-066>071-290400-
EASTERN PENNSYLVANIA
  
CITY           SKY/WX    TMP DP  RH WIND       PRES   REMARKS
PHILADELPHIA   MOCLDY    75  70  84 S8        29.88R                  
NORTH PHILA    CLOUDY    76  68  76 N9        29.90R                  
BLUE BELL*     CLOUDY    68  66  94 CALM      29.88S                  
DOYLESTOWN     RAIN      66  65  96 CALM      29.90R                  
QUAKERTOWN*    MOCLDY    66  66 100 CALM      29.91S                  
PERKASIE*      CLOUDY    66  66 100 CALM      29.91S                  
POTTSTOWN      CLOUDY    69  67  93 NE5       29.90F                  
LANCASTER      CLEAR     69  68  96 W6        29.89R                  
COATESVILLE    CLEAR     70  68  94 CALM      29.91R                  
READING        CLOUDY    69  66  90 NE3       29.89R                  
ALLENTOWN      MOCLDY    69  65  86 E5        29.90R                  
MOUNT POCONO   CLOUDY    64  62  93 VRB3      29.94S                  
HAZLETON       MOCLDY    64  63  94 NW5       29.97S                  
LEHIGHTON      CLOUDY    66  64  94 CALM      29.91S FOG              
WILKES BARRE   LGT RAIN  68  64  87 N3        29.92R                  

$$
DEZALL-MDZ008-012-015-019-020-290400-
DELAWARE AND EASTERN MARYLAND
  
CITY           SKY/WX    TMP DP  RH WIND       PRES   REMARKS
WILMINGTON     CLOUDY    71  69  93 N6        29.88R                  
DOVER          CLOUDY    73  73 100 S8        29.86R                  
GEORGETOWN     CLOUDY    74  72  93 SW7       29.89R                  
EASTON         MOCLDY    73  72  98 W3        29.93F                  
PATUXENT       CLOUDY    71  66  84 SE3       29.90F                  
OCEAN CITY     MOCLDY    72  70  93 SW6       29.89S                  
WALLOPS ISLAND FAIR      72  70  93 SW8       29.91R                  
SALISBURY      CLOUDY    73  72  96 SW9       29.88S                  

$$
PAZ001-021-NYZ056-072-MDZ011-DCZ001-290400-
OTHER NEARBY LOCATIONS
  
CITY           SKY/WX    TMP DP  RH WIND       PRES   REMARKS
HARRISBURG     PTCLDY    72  67  84 NW5       29.90R                  
STATE COLLEGE  MOCLDY    69  55  61 N6        29.97R                  
WILLIAMSPORT   CLOUDY    67  65  93 CALM      29.92S                  
BINGHAMTON     LGT RAIN  61  58  90 W7        29.95F                  
NEW YORK CITY  MOCLDY    71  69  93 CALM      29.91F FOG              
BALTIMORE      MOCLDY    68  66  93 W5        29.90S                  
WASHINGTON DC  MOCLDY    70  65  84 S5        29.91S                  

$$
  

Return to Home page


Western Regional Climate Center, wrcc@dri.edu